Theta_e
320 317 318 319 318 317 318 318 319 321 317 319 320 319 329 328 329 330 332 338 337 330 323 322 322 321 321 320 319 319 318 318 318 317 317 317 320 316 316 316 312 314 314 313
317 319 318 316 317 317 318 319 319 316 317 317 318 319 322 326 327 328 330 331 330 328 325 324 323 322 321 321 320 320 320 319 318 318 318 317 317 316 315 314 313 314 312 311
318 321 319 321 320 321 319 319 319 318 316 315 314 314 320 321 325 328 330 330 329 327 324 323 323 322 322 321 321 322 321 320 319 318 316 316 316 315 315 314 314 314 313 312
320 321 320 319 321 319 320 319 319 318 316 317 312 314 314 318 322 326 328 329 329 328 326 325 324 324 324 322 323 322 323 323 320 317 317 317 317 317 316 316 315 314 313 312
324 321 321 320 320 319 320 318 315 316 315 314 314 312 312 319 323 321 323 328 328 327 326 325 324 323 322 317 316 316 320 324 321 320 319 319 318 318 318 317 316 316 315 314
321 321 321 320 319 317 315 316 310 310 310 313 315 314 316 319 321 319 321 325 324 322 319 317 317 317 315 315 315 315 319 321 318 313 312 312 312 311 310 310 310 309 309 309
321 322 321 322 323 319 313 312 313 313 314 316 313 320 318 317 317 318 319 321 319 318 317 315 315 314 314 314 314 314 312 311 310 310 310 310 310 309 309 308 307 307 307 307
322 322 322 321 321 320 314 313 313 316 315 315 314 323 320 318 318 319 320 318 317 316 314 313 313 312 311 311 311 311 310 310 311 310 310 309 308 308 307 307 308 308 307 307
321 324 321 319 318 317 316 316 312 313 314 315 314 317 318 318 315 316 317 317 314 313 312 312 312 312 312 311 311 311 311 311 310 310 309 308 307 307 308 308 307 306 306 307
320 322 321 322 318 316 314 312 315 313 319 320 315 315 318 319 317 315 314 312 312 313 312 312 313 312 312 311 311 311 311 310 309 308 308 307 307 308 307 307 306 305 305 304
319 318 319 321 320 318 315 316 311 312 313 315 316 315 311 314 314 313 312 313 313 312 313 313 313 312 311 311 311 310 309 308 307 307 306 306 307 307 307 306 305 305 304 304
320 316 320 320 319 317 315 315 311 314 315 313 313 316 312 312 312 313 313 313 313 313 313 313 312 311 311 311 310 309 307 307 306 305 306 307 307 307 307 307 307 306 306 306
317 315 313 311 312 317 319 316 311 309 309 314 314 315 312 313 312 313 313 313 313 313 313 312 311 310 310 310 309 307 307 306 306 305 306 307 308 308 308 308 308 308 306 306
319 315 313 312 312 318 320 319 317 314 312 315 313 315 313 312 312 313 314 314 313 313 312 311 310 310 310 308 307 307 306 306 306 306 306 307 308 308 309 309 309 308 307 306
312 316 318 317 317 319 319 319 318 315 315 316 317 314 313 310 310 314 314 313 313 313 311 311 310 310 309 308 307 306 307 306 305 305 306 308 309 309 309 309 308 308 308 307
313 317 319 321 320 321 321 320 319 318 316 314 315 314 312 313 314 313 313 313 313 311 311 310 310 309 308 307 306 307 307 306 306 306 307 308 308 308 308 308 308 306 307 307
315 316 316 318 318 319 313 316 319 317 315 314 315 313 312 313 314 315 315 314 312 311 310 310 309 309 307 306 307 306 306 306 307 307 306 307 308 308 309 308 307 307 307 307
314 314 314 318 316 319 314 314 317 318 314 313 313 313 313 314 315 316 315 312 311 310 310 309 309 308 306 308 307 306 306 306 306 306 306 307 307 308 309 308 308 308 307 307
314 314 315 316 316 316 318 318 316 316 317 313 313 314 315 316 315 314 314 312 311 311 310 309 308 306 307 307 307 306 306 306 305 305 305 306 307 309 309 308 309 308 307 307
312 310 314 314 318 321 317 317 316 315 316 316 315 315 315 315 313 309 314 312 311 310 309 308 307 306 308 308 307 307 307 307 305 305 305 306 308 309 309 309 308 309 308 307
315 314 315 313 316 316 315 317 317 318 318 317 317 317 316 312 315 315 312 311 310 309 309 308 307 306 308 308 307 307 307 307 306 305 305 307 309 310 310 310 310 310 308 308
318 315 314 313 317 320 317 316 317 318 318 318 318 318 317 317 316 314 311 310 309 309 308 307 306 306 308 308 307 307 306 306 306 305 306 308 309 310 310 310 310 309 308 308
319 317 317 315 316 316 318 319 319 319 319 318 318 318 317 317 315 313 311 310 309 309 307 307 306 306 308 307 307 307 306 304 304 304 306 308 310 311 311 310 309 309 308 306
316 316 317 317 317 318 320 321 320 319 319 319 318 318 317 316 314 313 310 309 309 308 307 306 305 306 308 307 306 306 305 304 303 304 305 307 309 310 311 310 309 308 308 309
315 316 314 314 315 317 319 321 320 320 319 319 318 318 317 315 314 311 309 309 309 307 307 306 305 306 307 306 306 306 306 304 303 305 305 307 309 310 310 310 309 308 308 309
315 314 315 316 318 318 319 319 319 320 319 320 319 317 315 315 313 309 309 309 308 307 306 305 304 306 307 306 306 306 306 304 303 305 306 307 309 310 310 310 309 309 309 310
Wind_Speed
6 7 2 1 3 5 5 4 3 2 4 2 4 5 18 21 18 17 19 24 26 23 18 13 11 10 8 5 8 9 8 8 8 8 10 12 12 13 18 12 19 24 24 23
7 3 2 7 6 7 4 3 2 5 3 3 6 1 5 12 8 19 22 24 25 20 17 12 10 8 6 7 9 11 11 11 12 14 14 16 20 21 18 20 21 22 20 26
6 3 7 2 3 4 1 3 2 5 5 3 4 3 3 2 8 15 22 25 22 19 14 11 11 11 12 11 12 13 14 15 15 15 18 20 21 22 24 24 24 25 26 25
5 3 2 5 3 3 2 3 2 4 2 2 3 3 0 2 3 14 22 23 21 19 18 16 17 17 15 12 15 19 19 20 19 20 21 23 25 28 28 28 29 29 28 27
2 5 3 4 2 2 4 4 3 2 2 3 6 4 4 3 3 5 11 18 18 18 17 17 19 16 10 11 12 13 19 22 23 23 25 28 31 34 35 35 36 36 34 34
1 1 2 5 2 3 3 1 6 4 3 3 2 3 4 2 5 5 12 17 16 14 10 7 4 5 10 11 13 15 15 16 18 20 23 25 27 27 30 33 36 38 38 35
5 3 4 1 2 3 8 7 4 5 5 3 4 2 6 4 4 6 16 17 13 12 8 4 4 6 7 8 9 11 14 16 18 20 23 28 32 35 37 39 41 42 41 39
3 5 2 2 2 1 4 4 5 2 1 5 4 2 4 3 1 4 11 13 10 6 2 3 4 5 6 9 12 13 14 18 22 28 32 35 36 37 37 36 38 38 36 34
4 3 3 2 2 5 1 0 3 6 2 2 3 5 6 3 3 4 8 8 3 1 1 3 5 8 12 12 13 17 22 27 30 34 38 38 36 33 36 35 32 33 34 36
3 1 1 3 3 7 2 5 3 3 0 3 5 5 5 5 8 3 5 4 1 1 3 7 11 15 15 15 18 24 27 32 36 37 36 35 33 32 30 29 27 30 30 27
3 4 5 2 0 4 2 1 6 4 4 4 2 5 5 7 7 7 6 1 3 3 5 11 15 15 16 19 22 27 32 35 35 35 33 33 30 27 28 25 25 24 23 24
2 4 3 6 2 2 1 1 4 5 3 1 3 6 2 3 5 10 5 4 4 5 11 14 13 16 18 22 28 33 33 32 32 31 33 30 27 29 26 24 24 23 24 24
5 2 3 7 6 4 5 2 5 5 3 5 5 6 1 2 3 3 3 5 6 9 13 13 16 18 21 28 32 33 33 33 32 33 33 28 27 23 23 26 25 26 23 23
4 3 6 6 6 2 5 2 2 4 3 3 6 6 6 6 5 5 6 7 8 12 11 14 17 20 25 30 33 33 32 32 35 34 31 26 25 23 26 27 28 26 23 20
4 3 4 5 5 2 5 6 4 7 5 5 7 6 6 8 8 8 7 8 10 10 13 16 18 23 28 30 34 31 32 34 33 31 25 24 25 25 29 27 30 29 22 20
2 2 2 3 3 1 4 9 8 7 5 7 4 6 5 7 7 7 10 10 11 12 14 15 19 25 29 33 31 31 31 31 28 26 23 25 25 28 30 27 30 28 22 19
3 5 3 4 4 5 3 4 3 3 3 5 4 6 7 6 8 9 12 11 11 12 12 16 21 26 30 29 31 30 29 29 27 23 24 26 27 31 31 27 30 27 23 16
6 5 2 3 3 2 6 3 5 5 3 5 3 3 9 8 8 10 11 10 11 10 12 17 23 27 27 29 28 27 26 26 26 22 26 28 29 31 29 30 29 28 22 17
3 5 2 3 2 6 5 1 2 3 7 7 7 8 8 5 5 13 13 10 11 10 13 19 24 26 25 25 25 26 25 25 26 27 27 28 29 31 29 26 30 26 22 17
5 5 4 2 2 4 6 2 2 4 5 11 13 12 10 7 2 5 6 9 9 10 15 21 25 23 24 22 24 27 27 28 29 28 28 27 29 29 28 26 26 26 24 17
2 2 5 3 4 7 8 7 4 5 8 7 16 14 13 7 10 8 6 8 8 12 18 22 24 21 24 22 23 25 27 28 28 27 27 25 27 27 26 26 24 23 23 23
7 6 4 3 2 7 10 7 8 7 4 9 15 15 14 14 11 9 8 9 10 13 18 20 23 21 23 21 23 25 26 27 28 28 24 25 27 28 28 28 26 22 20 22
2 7 5 8 7 5 17 8 12 9 8 10 13 14 13 12 11 9 10 9 10 14 17 20 23 21 21 21 22 25 25 28 29 29 26 25 28 29 29 30 27 23 18 18
4 6 3 3 7 17 17 17 24 14 15 13 13 14 13 12 9 9 9 9 10 14 16 21 24 21 22 21 22 22 24 27 28 28 27 24 28 31 32 30 25 23 19 20
5 10 6 4 8 8 9 11 15 23 19 18 16 14 12 11 10 8 8 9 11 14 16 20 23 20 20 22 21 22 23 26 27 26 26 25 27 30 33 28 26 21 17 17
8 7 5 6 10 5 13 15 14 19 22 25 20 17 14 10 9 7 8 9 11 12 16 20 21 18 19 20 20 20 21 24 24 25 25 24 28 30 32 29 27 19 16 16
Wind_Direction
22 70 80 326 91 109 101 83 26 308 16 323 227 181 177 176 181 184 184 179 179 181 172 173 175 181 189 211 220 223 228 234 246 265 269 273 271 296 291 305 308 303 308 313
34 64 149 119 92 97 79 100 334 294 313 47 4 75 154 168 186 185 189 192 190 191 196 198 202 212 224 241 248 241 244 249 251 258 266 268 274 282 276 282 287 284 296 304
119 163 163 93 64 68 82 133 254 227 340 53 11 48 90 145 152 178 197 200 200 200 206 212 222 236 241 256 271 268 267 262 263 264 276 275 276 280 279 282 280 285 289 291
97 79 87 56 57 98 16 219 247 273 69 228 36 267 72 321 161 175 194 206 211 215 224 233 240 248 257 281 281 277 269 262 258 268 272 276 281 283 280 280 278 276 273 275
257 144 100 71 285 195 221 14 30 358 100 85 4 82 257 149 127 175 198 208 216 225 238 249 259 261 254 267 283 271 264 261 260 273 282 279 278 281 283 281 281 277 274 272
64 32 109 189 81 47 330 41 46 56 75 49 334 125 295 226 189 172 196 209 214 219 209 202 190 218 268 275 277 273 270 278 285 287 284 285 288 290 292 292 293 291 288 283
11 341 319 138 41 18 48 45 345 1 11 224 333 77 242 285 228 217 197 195 194 184 206 245 293 295 301 288 289 292 301 301 296 295 299 301 302 302 302 302 300 298 295 291
139 323 352 21 109 157 45 127 148 270 288 278 316 300 272 232 69 147 174 175 170 198 275 298 340 347 336 322 316 312 302 300 309 309 308 308 306 306 303 301 298 295 291 289
138 275 319 71 119 115 151 73 166 105 7 25 278 294 328 152 122 132 147 162 152 64 80 346 331 335 332 324 316 312 310 310 308 309 310 309 310 308 306 304 303 300 292 287
181 25 12 315 98 44 142 148 47 14 249 307 304 292 238 232 233 155 167 150 59 323 300 336 335 330 323 312 308 307 306 310 312 312 311 311 312 312 311 308 310 310 301 298
113 107 292 349 74 172 31 1 54 111 122 174 279 267 214 258 254 192 184 218 295 276 301 325 327 320 311 304 305 309 314 313 314 314 316 317 317 317 316 313 314 314 305 301
62 130 206 238 297 261 150 139 118 113 246 114 153 273 280 282 158 159 180 262 283 291 319 320 317 317 313 308 312 315 316 317 317 321 323 321 320 316 315 318 316 309 302 299
182 31 23 350 357 9 75 65 108 103 85 202 143 264 230 201 156 168 243 289 282 301 314 309 311 317 313 315 318 321 322 320 322 321 323 321 323 325 329 327 322 318 306 304
96 109 148 187 216 178 294 246 97 129 120 213 223 275 245 230 218 249 269 288 263 300 296 304 316 314 316 322 324 325 325 325 324 322 321 322 322 328 329 329 321 318 313 301
98 149 185 247 242 217 239 259 227 195 206 184 263 220 276 208 215 239 250 265 279 287 299 312 311 316 324 325 327 329 328 329 330 327 325 326 327 332 335 334 332 327 313 309
28 182 144 292 5 166 272 278 275 236 224 249 263 270 202 186 200 226 239 267 276 295 308 308 314 323 328 329 329 328 328 332 334 333 330 331 337 336 334 333 332 325 325 304
121 131 99 266 334 317 341 234 239 284 188 162 203 239 167 204 231 260 262 265 279 300 301 312 324 329 331 330 329 327 327 329 333 332 331 337 337 338 338 337 335 334 326 310
130 104 101 238 354 344 239 275 241 238 227 211 242 206 195 224 255 265 254 256 281 298 309 324 331 331 332 335 333 330 329 334 339 338 336 338 340 341 344 341 338 338 330 311
104 121 94 150 193 292 319 181 127 174 274 200 208 210 213 222 253 265 256 259 289 301 321 331 332 331 334 336 334 339 342 343 341 341 337 343 345 345 344 346 344 340 335 324
83 88 119 138 165 231 240 260 148 126 305 217 201 210 197 190 334 264 249 265 285 313 328 333 332 334 333 335 335 341 345 347 349 343 341 347 345 349 348 347 348 346 351 336
112 39 175 152 220 286 244 183 141 83 240 210 208 218 200 194 237 292 286 294 298 321 332 333 334 334 335 334 331 339 344 346 345 345 346 347 350 352 354 345 342 339 349 355
172 157 196 108 163 277 175 118 164 220 226 216 215 224 227 246 268 269 287 297 309 322 332 334 335 335 338 332 332 342 345 344 344 347 350 350 355 0 359 356 349 347 357 358
204 186 190 175 210 238 193 215 227 260 237 242 238 238 242 247 263 271 293 293 307 324 331 336 337 335 341 337 337 340 344 347 347 350 355 355 359 3 4 360 358 358 9 355
238 164 190 101 244 237 249 248 251 250 248 268 257 244 239 250 261 275 285 293 310 322 330 339 340 337 341 342 341 342 351 349 348 351 355 359 359 1 6 7 7 3 10 6
189 148 172 256 275 266 260 263 274 249 254 252 242 241 235 239 260 278 282 297 312 320 333 342 341 337 340 342 344 349 351 349 350 354 357 1 0 3 6 11 12 12 19 10
198 177 163 216 224 227 275 292 269 252 251 248 240 226 219 240 264 275 287 300 309 323 334 341 342 336 340 341 341 347 349 353 353 355 358 0 1 5 9 10 14 30 29 27